GW3513 Weather Reports


Display with metric or nautical units.
time (UTC)temp
F
wind
direction
speed
MPH
gust
MPH
rain 1hr
in
rain 24hr
in
rain mn
in
humidity
%
barometer
mb
20260504050311 63 161 0.0 0.0 0.00 0.00 0.00 63 1013.7
20260504045808 63 161 0.0 0.0 0.00 0.00 0.00 62 1013.9
20260504045304 63 161 0.0 0.0 0.00 0.00 0.00 62 1013.9
20260504044800 63 161 0.0 0.0 0.00 0.00 0.00 62 1013.9
20260504044258 64 161 0.0 0.0 0.00 0.00 0.00 61 1014.0
20260504043755 63 161 0.0 0.0 0.00 0.00 0.00 61 1014.0
20260504043251 64 161 0.0 0.0 0.00 0.00 0.00 61 1014.0
20260504042749 64 161 0.0 0.0 0.00 0.00 0.00 60 1014.2
20260504042245 63 161 0.0 0.0 0.00 0.00 0.00 61 1014.1
20260504041742 62 161 0.0 0.0 0.00 0.00 0.00 63 1014.1
20260504041238 62 161 0.0 0.0 0.00 0.00 0.00 64 1014.3
20260504040734 61 161 0.0 0.0 0.00 0.00 0.00 66 1014.1
20260504040232 61 161 0.0 0.0 0.00 0.00 0.00 67 1014.3
20260504035728 61 161 0.0 0.0 0.00 0.00 0.00 68 1014.3
20260504035225 61 161 0.0 0.0 0.00 0.00 0.00 68 1014.4
20260504034723 61 161 0.0 0.0 0.00 0.00 0.00 67 1014.3
20260504034220 61 161 0.0 0.0 0.00 0.00 0.00 67 1014.3
20260504033717 61 161 0.0 0.0 0.00 0.00 0.00 66 1014.5
20260504033214 61 161 0.0 0.0 0.00 0.00 0.00 67 1014.5
20260504032711 61 161 0.0 0.0 0.00 0.00 0.00 67 1014.5
20260504032203 62 161 0.0 0.0 0.00 0.00 0.00 66 1014.4
20260504031659 62 161 0.0 0.0 0.00 0.00 0.00 66 1014.4
20260504031156 62 161 0.0 0.0 0.00 0.00 0.00 65 1014.5
20260504030652 62 161 0.0 0.0 0.00 0.00 0.00 65 1014.5
20260504030150 62 161 0.0 0.0 0.00 0.00 0.00 65 1014.3
20260504025646 62 161 0.0 0.0 0.00 0.00 0.00 65 1014.5
20260504025143 62 161 0.0 0.0 0.00 0.00 0.00 65 1014.5
20260504024640 63 161 0.0 0.0 0.00 0.00 0.00 65 1014.2
20260504024136 63 161 0.0 0.0 0.00 0.00 0.00 64 1014.5
20260504023634 63 161 0.0 0.0 0.00 0.00 0.00 63 1014.5
20260504023130 63 161 0.0 0.0 0.00 0.00 0.00 64 1014.5
20260504022626 64 161 0.0 0.0 0.00 0.00 0.00 64 1014.2
20260504022121 64 161 0.0 0.0 0.00 0.00 0.00 63 1014.4
20260504021620 64 161 0.0 0.0 0.00 0.00 0.00 63 1014.4
20260504021116 64 161 0.0 0.0 0.00 0.00 0.00 62 1014.3
20260504020614 64 161 0.0 0.0 0.00 0.00 0.00 62 1014.3
20260504020109 64 161 0.0 0.0 0.00 0.00 0.00 61 1014.3
20260504015606 65 161 0.0 0.0 0.00 0.00 0.00 60 1014.4
20260504015102 65 161 0.0 0.0 0.00 0.00 0.00 58 1014.3
20260504014558 65 161 0.0 0.0 0.00 0.00 0.00 58 1014.3
20260504014056 66 161 0.0 0.0 0.00 0.00 0.00 57 1014.3
20260504013553 66 161 0.0 0.0 0.00 0.00 0.00 56 1014.3
20260504013050 67 161 0.0 0.0 0.00 0.00 0.00 55 1014.4
20260504012547 68 161 0.0 0.0 0.00 0.00 0.00 53 1014.3
20260504012045 68 161 0.0 0.0 0.00 0.00 0.00 53 1014.3
20260504011542 68 161 0.0 0.0 0.00 0.00 0.00 53 1014.1
20260504011038 68 161 0.0 0.0 0.00 0.00 0.00 53 1014.3
20260504010533 68 161 0.0 0.0 0.00 0.00 0.00 53 1014.4
20260504010030 69 161 0.0 0.0 0.00 0.00 0.00 52 1014.3
20260504005527 69 161 0.0 0.0 0.00 0.00 0.00 51 1014.3
20260504005024 70 161 0.0 0.0 0.00 0.00 0.00 51 1014.4
20260504004522 70 161 0.0 0.0 0.00 0.00 0.00 50 1014.3
20260504004019 71 161 0.0 0.0 0.00 0.00 0.00 50 1014.3
20260504003515 71 161 0.0 0.0 0.00 0.00 0.00 49 1014.3
20260504003012 72 161 0.0 0.0 0.00 0.00 0.00 48 1014.3
20260504002509 73 161 0.0 0.0 0.00 0.00 0.00 47 1014.4
20260504002006 74 161 0.0 0.0 0.00 0.00 0.00 46 1014.2
20260504001503 75 161 0.0 0.0 0.00 0.00 0.00 45 1014.5
20260504000959 76 161 0.0 0.0 0.00 0.00 0.00 45 1014.5
20260504000457 77 161 0.0 0.0 0.00 0.00 0.00 43 1014.4
20260503235954 78 161 0.0 0.0 0.00 0.00 0.00 43 1014.4
20260503235452 78 161 0.0 0.0 0.00 0.00 0.00 43 1014.6
20260503234949 79 161 0.0 0.0 0.00 0.00 0.00 40 1014.6
20260503234446 79 161 0.0 0.0 0.00 0.00 0.00 41 1014.5
20260503233945 79 161 0.0 0.0 0.00 0.00 0.00 41 1014.6
20260503233440 78 161 0.0 0.0 0.00 0.00 0.00 40 1014.6
20260503232937 79 161 0.0 0.0 0.00 0.00 0.00 39 1014.5
20260503232434 80 161 0.0 0.0 0.00 0.00 0.00 42 1014.6
20260503231932 81 161 0.0 0.0 0.00 0.00 0.00 35 1014.7
20260503231429 83 161 0.0 0.0 0.00 0.00 0.00 39 1014.7
20260503230926 85 161 0.0 0.0 0.00 0.00 0.00 33 1014.5
20260503230422 87 161 0.0 0.0 0.00 0.00 0.00 35 1014.8
20260503225920 87 160 0.0 0.0 0.00 0.00 0.00 33 1014.7
20260503225416 86 161 0.0 0.0 0.00 0.00 0.00 34 1014.7
20260503224912 87 161 0.0 0.0 0.00 0.00 0.00 32 1014.5
20260503224409 86 161 0.0 0.0 0.00 0.00 0.00 35 1014.7
20260503223907 86 161 0.0 0.0 0.00 0.00 0.00 35 1014.7
20260503223405 88 161 0.0 0.0 0.00 0.00 0.00 27 1014.7
20260503222900 90 161 0.0 0.0 0.00 0.00 0.00 33 1014.6
20260503222359 88 161 0.0 0.0 0.00 0.00 0.00 36 1014.5
20260503221856 90 161 0.0 0.0 0.00 0.00 0.00 31 1014.9
20260503221355 90 161 0.0 0.0 0.00 0.00 0.00 30 1015.0
20260503220850 90 161 0.0 0.0 0.00 0.00 0.00 28 1015.0
20260503220347 91 161 0.0 0.0 0.00 0.00 0.00 29 1015.1
20260503215844 92 161 0.0 0.0 0.00 0.00 0.00 30 1015.2
20260503215342 94 161 0.0 0.0 0.00 0.00 0.00 28 1015.2
20260503214839 94 161 0.0 0.0 0.00 0.00 0.00 29 1015.3
20260503214336 93 161 0.0 0.0 0.00 0.00 0.00 30 1015.3
20260503213833 95 161 0.0 0.0 0.00 0.00 0.00 28 1015.2
20260503213331 95 161 0.0 0.0 0.00 0.00 0.00 27 1015.4
20260503212828 93 161 0.0 0.0 0.00 0.00 0.00 28 1015.4
20260503212326 95 161 0.0 0.0 0.00 0.00 0.00 27 1015.7
20260503211823 96 161 0.0 0.0 0.00 0.00 0.00 27 1015.4
20260503211319 95 161 0.0 0.0 0.00 0.00 0.00 30 1015.5
20260503210819 97 161 0.0 0.0 0.00 0.00 0.00 28 1015.4
20260503210317 98 161 0.0 0.0 0.00 0.00 0.00 25 1015.7
20260503205812 99 161 0.0 0.0 0.00 0.00 0.00 24 1015.8
20260503205309 99 161 0.0 0.0 0.00 0.00 0.00 27 1015.9
20260503204805 97 161 0.0 0.0 0.00 0.00 0.00 29 1015.9
20260503204303 99 161 0.0 0.0 0.00 0.00 0.00 24 1015.9
20260503203800 97 161 0.0 0.0 0.00 0.00 0.00 27 1016.3
20260503203257 96 160 0.0 0.0 0.00 0.00 0.00 27 1016.4
20260503202754 94 161 0.0 0.0 0.00 0.00 0.00 31 1016.2
20260503202252 96 160 0.0 0.0 0.00 0.00 0.00 26 1016.4
20260503201744 95 160 0.0 0.0 0.00 0.00 0.00 28 1016.3
20260503201241 95 161 0.0 0.0 0.00 0.00 0.00 26 1016.5
20260503200738 96 160 0.0 0.0 0.00 0.00 0.00 30 1016.3
20260503200234 95 160 0.0 0.0 0.00 0.00 0.00 27 1016.4
20260503195731 95 160 0.0 0.0 0.00 0.00 0.00 26 1016.6
20260503195228 97 160 0.0 0.0 0.00 0.00 0.00 27 1016.8
20260503194726 94 160 0.0 0.0 0.00 0.00 0.00 30 1016.9
20260503194221 95 160 0.0 0.0 0.00 0.00 0.00 32 1016.9
20260503193717 93 160 0.0 0.0 0.00 0.00 0.00 30 1016.9
20260503193214 95 160 0.0 0.0 0.00 0.00 0.00 29 1016.9
20260503192709 94 160 0.0 0.0 0.00 0.00 0.00 33 1017.2
20260503192205 93 160 0.0 0.0 0.00 0.00 0.00 28 1017.2
20260503191702 91 160 0.0 0.0 0.00 0.00 0.00 33 1017.1
20260503191159 92 160 0.0 0.0 0.00 0.00 0.00 30 1017.1
20260503190656 93 160 0.0 0.0 0.00 0.00 0.00 30 1017.3
20260503190152 94 160 0.0 0.0 0.00 0.00 0.00 31 1017.4
20260503185649 94 160 0.0 0.0 0.00 0.00 0.00 31 1017.5
20260503185144 93 160 0.0 0.0 0.00 0.00 0.00 35 1017.5
20260503184639 94 160 0.0 0.0 0.00 0.00 0.00 31 1017.6
20260503184136 96 160 0.0 0.0 0.00 0.00 0.00 30 1017.8
20260503183633 95 160 0.0 0.0 0.00 0.00 0.00 33 1017.9
20260503183130 92 160 0.0 0.0 0.00 0.00 0.00 35 1017.9
20260503182628 91 160 0.0 0.0 0.00 0.00 0.00 33 1017.7
20260503182126 89 160 0.0 0.0 0.00 0.00 0.00 34 1018.0
20260503181623 89 160 0.0 0.0 0.00 0.00 0.00 34 1018.1
20260503181120 90 161 0.0 0.0 0.00 0.00 0.00 31 1018.1
20260503180617 89 160 0.0 0.0 0.00 0.00 0.00 34 1018.4
20260503180115 87 161 0.0 0.0 0.00 0.00 0.00 37 1018.4
20260503175611 84 161 0.0 0.0 0.00 0.00 0.00 41 1018.6
20260503175108 85 161 0.0 0.0 0.00 0.00 0.00 35 1018.7
20260503174605 85 161 0.0 0.0 0.00 0.00 0.00 39 1018.6
20260503174102 86 161 0.0 0.0 0.00 0.00 0.00 37 1018.7
20260503173557 84 161 0.0 0.0 0.00 0.00 0.00 39 1018.9
20260503173054 83 161 0.0 0.0 0.00 0.00 0.00 38 1018.9
20260503172551 83 161 0.0 0.0 0.00 0.00 0.00 36 1019.0
20260503172048 83 160 0.0 0.0 0.00 0.00 0.00 42 1018.9
20260503171544 84 160 0.0 0.0 0.00 0.00 0.00 37 1019.0
20260503171042 83 161 0.0 0.0 0.00 0.00 0.00 43 1019.2
20260503170538 84 160 0.0 0.0 0.00 0.00 0.00 39 1019.3
20260503150924 64 161 0.0 0.0 0.00 0.00 0.00 56 1020.2
20260503150421 62 161 0.0 0.0 0.00 0.00 0.00 57 1020.4
20260503131314 50 161 0.0 0.0 0.00 0.00 0.00 74 1021.1
20260503130812 50 161 0.0 0.0 0.00 0.00 0.00 74 1021.0
20260503130309 49 161 0.0 0.0 0.00 0.00 0.00 75 1020.9
20260503110703 41 160 0.0 0.0 0.00 0.00 0.00 87 1020.5
20260503110200 41 160 0.0 0.0 0.00 0.00 0.00 87 1020.6
20260503100126 42 160 0.0 0.0 0.00 0.00 0.00 86 1020.9
20260503081504 42 161 0.0 0.0 0.00 0.00 0.00 85 1021.7
20260503081001 42 161 0.0 0.0 0.00 0.00 0.00 85 1021.4
20260503080457 42 161 0.0 0.0 0.00 0.00 0.00 85 1021.4
20260503072934 44 161 0.0 0.0 0.00 0.00 0.00 82 1021.7
20260503072431 43 161 0.0 0.0 0.00 0.00 0.00 83 1021.9
20260503071928 43 161 0.0 0.0 0.00 0.00 0.00 83 1021.9
20260503071425 43 161 0.0 0.0 0.00 0.00 0.00 84 1021.8
20260503070921 43 161 0.0 0.0 0.00 0.00 0.00 84 1022.0
20260503070418 43 161 0.0 0.0 0.00 0.00 0.00 84 1022.0
20260503054832 41 161 0.0 0.0 0.00 0.00 0.00 89 1022.5